Location: Tauranga
(37.6860°S, 176.1670°E)
Time: 18:43:40
(UTC+13:00)

Cosmos 1869 Rocket - Pass Details

Date: 24 January 2019
Orbit: 606 x 632 km, 82.5° (Epoch: 20 February)

Event Time Altitude Azimuth Distance (km) Brightness Sun altitude
Rises 22:29:19 0° 182° (S) 2,916 7.8 -19.4°
Reaches altitude 10° 22:31:37 10° 177° (S) 1,999 6.7 -19.7°
Maximum altitude 22:35:57 53° 100° (E) 759 3.7 -20.3°
Enters shadow 22:36:30 49° 71° (ENE) 793 3.7 -20.3°
